Location: Killam
(52.7910°N, 111.8608°W)
Time: 03:50:43
(UTC+00:00)

NOAA 19 - Visible Passes

Search period start: 08 March 2026 00:00
Search period end: 18 March 2026 00:00
Orbit: 838 x 857 km, 99.0° (Epoch: 7 March)

Date Brightness Start Highest point End Pass type
(mag) Time Alt. Az. Time Alt. Az. Time Alt. Az.
8 Mar 6.8 02:50:32 16° ENE 02:51:57 17° NE 02:55:22 10° N visible
8 Mar 5.4 04:32:28 61° NNE 04:32:28 61° NNE 04:37:11 10° NNW visible
8 Mar 7.3 06:14:24 20° WNW 06:14:24 20° WNW 06:17:10 10° NW visible
9 Mar 7.0 02:37:31 12° ENE 02:39:24 14° NE 02:42:14 10° NNE visible
9 Mar 5.4 04:19:26 56° NE 04:19:26 56° NE 04:24:23 10° N visible
9 Mar 7.0 06:01:22 25° WNW 06:01:22 25° WNW 06:04:40 10° NW visible
10 Mar 7.1 02:24:50 10° ENE 02:26:53 12° NE 02:28:57 10° NNE visible
10 Mar 5.5 04:06:25 47° ENE 04:06:25 47° ENE 04:11:34 10° N visible
10 Mar 6.7 05:48:20 31° WNW 05:48:20 31° WNW 05:52:06 10° NNW visible
11 Mar 7.3 02:13:46 10° NE 02:14:23 10° NE 02:15:01 10° NNE visible
11 Mar 5.8 03:53:23 39° ENE 03:53:36 39° ENE 03:58:42 10° N visible
11 Mar 6.4 05:35:19 38° WNW 05:35:19 38° WNW 05:39:29 10° NNW visible
12 Mar 6.0 03:40:21 32° ENE 03:40:58 33° ENE 03:45:50 10° N visible
12 Mar 6.0 05:22:17 48° WNW 05:22:17 48° WNW 05:26:49 10° NNW visible
13 Mar 6.2 03:27:20 26° ENE 03:28:20 27° ENE 03:32:56 10° N visible
13 Mar 5.6 05:09:15 60° WNW 05:09:15 60° WNW 05:14:06 10° NNW visible
13 Mar 7.8 06:51:11 12° WNW 06:51:11 12° WNW 06:52:27 10° WNW visible
14 Mar 6.5 03:14:18 21° ENE 03:15:44 23° NE 03:19:59 10° N visible
14 Mar 5.3 04:56:14 74° NW 04:56:14 74° NW 05:01:23 10° NNW visible
14 Mar 7.6 06:38:09 15° WNW 06:38:09 15° WNW 06:40:32 10° NW visible
15 Mar 6.7 03:01:17 17° ENE 03:03:10 20° NE 03:07:00 10° N visible
15 Mar 5.1 04:43:13 82° NE 04:43:13 82° NE 04:48:37 10° NNW visible
15 Mar 7.3 06:25:08 19° WNW 06:25:08 19° WNW 06:28:16 10° NW visible
16 Mar 6.9 02:48:15 13° ENE 02:50:36 17° NE 02:53:58 10° N visible
16 Mar 5.1 04:30:11 68° ENE 04:30:19 69° ENE 04:35:50 10° NNW visible
16 Mar 7.0 06:12:06 23° W 06:12:06 23° W 06:15:51 10° NW visible
17 Mar 7.1 02:35:19 10° ENE 02:38:04 14° NE 02:40:50 10° NNE visible
17 Mar 5.3 04:17:10 54° E 04:17:36 56° ENE 04:23:01 10° N visible
17 Mar 6.7 05:59:05 29° W 05:59:05 29° W 06:03:20 10° NNW visible
